DAL2120 KLAS-KLAX

Flight info

Callsign DAL2120
Flight time 0h 46m
Altitude 28000
Route RADYR2 BLAQQ SHTNR ANJLL4
Aircraft B738/M-SDE2E3FGHIRWXY/LB1

Departure

Time 2026-05-05 01:58
Airport Harry Reid International Airport (KLAS)

Arrival

Time 2026-05-05 02:44
Airport Los Angeles International Airport (KLAX)
Time Latitude Longitude Altitude Speed Heading
2026-05-05 01:24 36.08069 -115.13844 2080 ft 0 kts 315°
2026-05-05 01:25 36.08068 -115.13844 2080 ft 0 kts 315°
2026-05-05 01:26 36.08069 -115.13844 2080 ft 0 kts 315°
2026-05-05 01:26 36.08068 -115.13844 2080 ft 0 kts 315°
2026-05-05 01:26 36.08069 -115.13844 2080 ft 0 kts 315°
2026-05-05 01:27 36.08068 -115.13844 2080 ft 0 kts 315°
2026-05-05 01:28 36.08069 -115.13844 2080 ft 0 kts 315°
2026-05-05 01:28 36.08068 -115.13844 2080 ft 0 kts 315°
2026-05-05 01:29 36.08069 -115.13844 2080 ft 0 kts 315°
2026-05-05 01:29 36.08068 -115.13844 2080 ft 0 kts 315°
2026-05-05 01:30 36.08069 -115.13844 2080 ft 0 kts 315°
2026-05-05 01:32 36.08068 -115.13844 2080 ft 0 kts 315°
2026-05-05 01:32 36.08069 -115.13844 2080 ft 0 kts 315°
2026-05-05 01:32 36.08068 -115.13844 2080 ft 0 kts 315°
2026-05-05 01:33 36.08069 -115.13844 2080 ft 0 kts 315°
2026-05-05 01:33 36.08068 -115.13844 2080 ft 0 kts 315°
2026-05-05 01:33 36.08069 -115.13844 2080 ft 0 kts 315°
2026-05-05 01:34 36.08068 -115.13844 2080 ft 0 kts 315°
2026-05-05 01:36 36.08069 -115.13844 2080 ft 0 kts 315°
2026-05-05 01:36 36.08068 -115.13844 2080 ft 0 kts 315°
2026-05-05 01:37 36.08069 -115.13844 2080 ft 0 kts 315°
2026-05-05 01:37 36.08068 -115.13844 2080 ft 0 kts 315°
2026-05-05 01:46 36.08068 -115.13843 2080 ft 0 kts 315°
2026-05-05 01:46 36.08061 -115.13834 2080 ft 2 kts 315°
2026-05-05 01:47 36.08050 -115.13821 2079 ft 2 kts 315°
2026-05-05 01:47 36.08040 -115.13807 2079 ft 2 kts 315°
2026-05-05 01:47 36.08031 -115.13797 2079 ft 2 kts 316°
2026-05-05 01:47 36.08021 -115.13781 2079 ft 2 kts 294°
2026-05-05 01:48 36.08016 -115.13763 2079 ft 1 kts 279°
2026-05-05 01:48 36.08016 -115.13754 2079 ft 1 kts 275°
2026-05-05 01:48 36.08016 -115.13753 2079 ft 0 kts 275°
2026-05-05 01:50 36.08016 -115.13761 2079 ft 3 kts 273°
2026-05-05 01:51 36.07996 -115.13814 2080 ft 8 kts 226°
2026-05-05 01:51 36.07948 -115.13875 2084 ft 8 kts 225°
2026-05-05 01:51 36.07919 -115.13908 2087 ft 3 kts 223°
2026-05-05 01:51 36.07899 -115.13931 2088 ft 4 kts 221°
2026-05-05 01:52 36.07858 -115.13953 2089 ft 8 kts 175°
2026-05-05 01:52 36.07827 -115.13866 2088 ft 15 kts 91°
2026-05-05 01:52 36.07827 -115.13705 2082 ft 21 kts 89°
2026-05-05 01:52 36.07827 -115.13500 2078 ft 21 kts 90°
2026-05-05 01:53 36.07825 -115.13322 2071 ft 19 kts 90°
2026-05-05 01:53 36.07826 -115.13160 2068 ft 18 kts 89°
2026-05-05 01:53 36.07829 -115.12999 2062 ft 18 kts 90°
2026-05-05 01:53 36.07828 -115.12846 2059 ft 16 kts 90°
2026-05-05 01:54 36.07827 -115.12712 2056 ft 15 kts 90°
2026-05-05 01:54 36.07828 -115.12566 2054 ft 18 kts 90°
2026-05-05 01:54 36.07827 -115.12406 2051 ft 17 kts 90°
2026-05-05 01:54 36.07824 -115.12264 2048 ft 16 kts 110°
2026-05-05 01:55 36.07764 -115.12172 2047 ft 5 kts 133°
2026-05-05 01:55 36.07754 -115.12158 2047 ft 0 kts 133°
2026-05-05 01:56 36.07754 -115.12157 2047 ft 0 kts 134°
2026-05-05 01:56 36.07713 -115.12125 2048 ft 12 kts 171°
2026-05-05 01:57 36.07645 -115.12161 2049 ft 9 kts 253°
2026-05-05 01:57 36.07644 -115.12193 2050 ft 0 kts 269°
2026-05-05 01:57 36.07644 -115.12196 2050 ft 3 kts 269°
2026-05-05 01:57 36.07642 -115.12439 2055 ft 63 kts 269°
2026-05-05 01:58 36.07643 -115.13284 2074 ft 127 kts 268°
2026-05-05 01:58 36.07645 -115.14645 2138 ft 176 kts 268°
2026-05-05 01:58 36.07686 -115.16375 2845 ft 179 kts 265°
2026-05-05 01:58 36.07673 -115.17943 3825 ft 167 kts 264°
2026-05-05 01:59 36.07638 -115.19421 4226 ft 179 kts 264°
2026-05-05 01:59 36.07585 -115.21095 4642 ft 190 kts 259°
2026-05-05 01:59 36.07359 -115.22796 5133 ft 198 kts 254°
2026-05-05 01:59 36.07010 -115.24528 5792 ft 198 kts 245°
2026-05-05 02:00 36.06258 -115.25938 6420 ft 196 kts 220°
2026-05-05 02:00 36.05003 -115.26800 6880 ft 209 kts 201°
2026-05-05 02:00 36.03550 -115.27418 7243 ft 227 kts 200°
2026-05-05 02:00 36.01959 -115.28124 7688 ft 242 kts 201°
2026-05-05 02:01 36.00333 -115.28873 8021 ft 256 kts 201°
2026-05-05 02:01 35.98513 -115.29609 8080 ft 276 kts 195°
2026-05-05 02:01 35.96605 -115.30118 8979 ft 273 kts 191°
2026-05-05 02:01 35.94732 -115.30541 9821 ft 273 kts 190°
2026-05-05 02:02 35.92804 -115.30981 10459 ft 282 kts 191°
2026-05-05 02:02 35.90787 -115.31461 10989 ft 295 kts 192°
2026-05-05 02:02 35.88716 -115.31967 11465 ft 310 kts 192°
2026-05-05 02:02 35.86557 -115.32497 12040 ft 321 kts 193°
2026-05-05 02:03 35.84296 -115.33054 12880 ft 327 kts 193°
2026-05-05 02:03 35.82048 -115.33607 13668 ft 330 kts 193°
2026-05-05 02:03 35.79744 -115.34173 14525 ft 333 kts 194°
2026-05-05 02:03 35.77441 -115.34734 15472 ft 332 kts 194°
2026-05-05 02:04 35.75127 -115.35300 16320 ft 334 kts 195°
2026-05-05 02:04 35.72846 -115.35857 17191 ft 334 kts 195°
2026-05-05 02:04 35.70531 -115.36425 17949 ft 337 kts 195°
2026-05-05 02:04 35.68203 -115.36996 18713 ft 338 kts 196°
2026-05-05 02:05 35.65862 -115.37571 19395 ft 342 kts 196°
2026-05-05 02:05 35.63517 -115.38136 20032 ft 346 kts 195°
2026-05-05 02:05 35.61063 -115.38581 20787 ft 349 kts 191°
2026-05-05 02:05 35.58576 -115.38718 21285 ft 360 kts 186°
2026-05-05 02:06 35.56031 -115.38603 22053 ft 360 kts 183°
2026-05-05 02:06 35.53544 -115.38394 22714 ft 361 kts 182°
2026-05-05 02:06 35.50997 -115.38167 23247 ft 366 kts 184°
2026-05-05 02:06 35.48465 -115.37955 23853 ft 366 kts 184°
2026-05-05 02:07 35.45912 -115.37875 24465 ft 362 kts 190°
2026-05-05 02:07 35.43483 -115.38287 25119 ft 352 kts 200°
2026-05-05 02:07 35.41190 -115.39263 25783 ft 344 kts 208°
2026-05-05 02:07 35.39044 -115.40553 26435 ft 340 kts 212°
2026-05-05 02:08 35.36942 -115.41946 27012 ft 339 kts 213°
2026-05-05 02:08 35.34875 -115.43343 27624 ft 336 kts 212°
2026-05-05 02:08 35.32772 -115.44745 27885 ft 337 kts 212°
2026-05-05 02:08 35.30695 -115.46110 27890 ft 329 kts 212°
2026-05-05 02:09 35.28661 -115.47430 27899 ft 324 kts 212°
2026-05-05 02:09 35.26643 -115.48733 27898 ft 323 kts 211°
2026-05-05 02:09 35.24548 -115.50075 27903 ft 330 kts 212°
2026-05-05 02:09 35.22478 -115.51400 27900 ft 327 kts 211°
2026-05-05 02:10 35.20444 -115.52694 27891 ft 323 kts 212°
2026-05-05 02:10 35.18454 -115.53960 27896 ft 326 kts 212°
2026-05-05 02:10 35.16437 -115.55242 27898 ft 327 kts 212°
2026-05-05 02:10 35.14429 -115.56552 27893 ft 326 kts 214°
2026-05-05 02:11 35.12506 -115.58082 27893 ft 322 kts 219°
2026-05-05 02:11 35.10788 -115.59869 27898 ft 320 kts 223°
2026-05-05 02:11 35.09190 -115.61811 27896 ft 320 kts 226°
2026-05-05 02:11 35.07646 -115.63808 27884 ft 324 kts 226°
2026-05-05 02:12 35.06065 -115.65872 27886 ft 323 kts 226°
2026-05-05 02:12 35.02973 -115.69875 27877 ft 319 kts 225°
2026-05-05 02:12 35.01366 -115.71937 27867 ft 322 kts 226°
2026-05-05 02:13 34.99757 -115.73998 27870 ft 322 kts 226°
2026-05-05 02:13 34.98166 -115.76032 27856 ft 322 kts 225°
2026-05-05 02:13 34.96534 -115.78111 27865 ft 319 kts 225°
2026-05-05 02:13 34.94919 -115.80168 27867 ft 321 kts 226°
2026-05-05 02:14 34.93324 -115.82198 27868 ft 320 kts 226°
2026-05-05 02:14 34.91713 -115.84245 27866 ft 322 kts 225°
2026-05-05 02:14 34.90063 -115.86345 27862 ft 321 kts 226°
2026-05-05 02:14 34.88458 -115.88385 27870 ft 320 kts 226°
2026-05-05 02:15 34.86878 -115.90390 27875 ft 321 kts 226°
2026-05-05 02:15 34.85294 -115.92401 27870 ft 319 kts 225°
2026-05-05 02:15 34.83727 -115.94385 27866 ft 321 kts 225°
2026-05-05 02:15 34.82174 -115.96353 27864 ft 320 kts 226°
2026-05-05 02:16 34.80598 -115.98350 27868 ft 319 kts 225°
2026-05-05 02:16 34.79048 -116.00314 27867 ft 320 kts 226°
2026-05-05 02:16 34.77499 -116.02274 27864 ft 320 kts 226°
2026-05-05 02:16 34.75947 -116.04249 27871 ft 319 kts 225°
2026-05-05 02:17 34.74398 -116.06223 27869 ft 321 kts 225°
2026-05-05 02:17 34.72850 -116.08197 27867 ft 320 kts 226°
2026-05-05 02:17 34.71293 -116.10182 27877 ft 321 kts 225°
2026-05-05 02:17 34.69763 -116.12135 27876 ft 318 kts 225°
2026-05-05 02:18 34.68203 -116.14117 27886 ft 321 kts 226°
2026-05-05 02:18 34.66662 -116.16076 27890 ft 319 kts 225°
2026-05-05 02:18 34.65080 -116.18084 27894 ft 320 kts 226°
2026-05-05 02:18 34.63515 -116.20070 27893 ft 318 kts 226°
2026-05-05 02:19 34.61922 -116.22092 27892 ft 318 kts 225°
2026-05-05 02:19 34.60329 -116.24113 27891 ft 320 kts 226°
2026-05-05 02:19 34.58699 -116.26180 27901 ft 321 kts 225°
2026-05-05 02:19 34.57133 -116.28160 27912 ft 317 kts 225°
2026-05-05 02:20 34.55518 -116.30207 27909 ft 320 kts 226°
2026-05-05 02:20 34.53934 -116.32214 27907 ft 320 kts 226°
2026-05-05 02:20 34.52339 -116.34235 27899 ft 318 kts 225°
2026-05-05 02:20 34.50714 -116.36286 27907 ft 322 kts 225°
2026-05-05 02:21 34.49066 -116.38368 27918 ft 319 kts 226°
2026-05-05 02:21 34.47489 -116.40363 27912 ft 318 kts 225°
2026-05-05 02:21 34.45872 -116.42403 27903 ft 318 kts 225°
2026-05-05 02:21 34.44234 -116.44469 27914 ft 318 kts 225°
2026-05-05 02:22 34.42665 -116.46538 27930 ft 318 kts 228°
2026-05-05 02:22 34.41319 -116.48739 27944 ft 319 kts 234°
2026-05-05 02:22 34.40155 -116.51199 27928 ft 321 kts 238°
2026-05-05 02:22 34.39121 -116.53693 27923 ft 322 kts 240°
2026-05-05 02:23 34.38109 -116.56216 27935 ft 321 kts 240°
2026-05-05 02:23 34.37098 -116.58728 27946 ft 320 kts 239°
2026-05-05 02:23 34.36077 -116.61242 27943 ft 329 kts 239°
2026-05-05 02:23 34.35592 -116.62427 27942 ft 334 kts 239°
2026-05-05 02:24 34.34508 -116.65065 27939 ft 337 kts 238°
2026-05-05 02:24 34.33434 -116.67690 27941 ft 321 kts 239°
2026-05-05 02:24 34.32421 -116.70208 27956 ft 304 kts 238°
2026-05-05 02:24 34.31485 -116.72553 27958 ft 294 kts 239°
2026-05-05 02:25 34.30546 -116.74893 27961 ft 301 kts 239°
2026-05-05 02:25 34.29587 -116.77270 27724 ft 307 kts 239°
2026-05-05 02:25 34.28593 -116.79731 27255 ft 305 kts 240°
2026-05-05 02:25 34.27645 -116.82085 26744 ft 303 kts 240°
2026-05-05 02:26 34.26699 -116.84431 26237 ft 302 kts 240°
2026-05-05 02:26 34.25784 -116.86708 25775 ft 299 kts 240°
2026-05-05 02:26 34.24865 -116.88991 25297 ft 297 kts 240°
2026-05-05 02:26 34.23952 -116.91254 24822 ft 295 kts 242°
2026-05-05 02:27 34.23043 -116.93503 24338 ft 294 kts 241°
2026-05-05 02:27 34.22113 -116.95800 23873 ft 293 kts 242°
2026-05-05 02:27 34.21195 -116.98099 23408 ft 291 kts 244°
2026-05-05 02:27 34.20446 -117.00386 23021 ft 288 kts 249°
2026-05-05 02:28 34.19793 -117.02805 22379 ft 293 kts 250°
2026-05-05 02:28 34.19192 -117.05170 22029 ft 287 kts 250°
2026-05-05 02:28 34.18556 -117.07626 21637 ft 294 kts 250°
2026-05-05 02:28 34.17892 -117.10134 21187 ft 309 kts 250°
2026-05-05 02:29 34.17203 -117.12704 20739 ft 309 kts 250°
2026-05-05 02:29 34.16539 -117.15165 20300 ft 306 kts 250°
2026-05-05 02:29 34.15866 -117.17626 19858 ft 303 kts 250°
2026-05-05 02:29 34.15185 -117.20109 19412 ft 303 kts 250°
2026-05-05 02:30 34.14507 -117.22573 18948 ft 303 kts 250°
2026-05-05 02:30 34.13842 -117.24990 18429 ft 303 kts 250°
2026-05-05 02:30 34.13173 -117.27425 17973 ft 301 kts 251°
2026-05-05 02:30 34.12511 -117.29826 17573 ft 297 kts 250°
2026-05-05 02:31 34.11853 -117.32213 17127 ft 295 kts 251°
2026-05-05 02:31 34.11209 -117.34552 16619 ft 295 kts 251°
2026-05-05 02:31 34.10562 -117.36912 16277 ft 289 kts 251°
2026-05-05 02:31 34.09952 -117.39227 15874 ft 287 kts 252°
2026-05-05 02:32 34.09382 -117.41528 15420 ft 286 kts 252°
2026-05-05 02:32 34.08808 -117.43871 14932 ft 285 kts 253°
2026-05-05 02:32 34.08240 -117.46178 14589 ft 280 kts 252°
2026-05-05 02:32 34.07637 -117.48599 14200 ft 289 kts 252°
2026-05-05 02:33 34.07039 -117.50986 13788 ft 293 kts 252°
2026-05-05 02:33 34.06430 -117.53385 13347 ft 294 kts 252°
2026-05-05 02:33 34.05819 -117.55776 12936 ft 291 kts 253°
2026-05-05 02:33 34.05215 -117.58128 12515 ft 289 kts 253°
2026-05-05 02:34 34.04614 -117.60468 12093 ft 288 kts 253°
2026-05-05 02:34 34.04026 -117.62766 11693 ft 287 kts 253°
2026-05-05 02:34 34.03426 -117.65115 11246 ft 287 kts 252°
2026-05-05 02:34 34.02832 -117.67435 10793 ft 287 kts 252°
2026-05-05 02:35 34.02271 -117.69745 10406 ft 284 kts 257°
2026-05-05 02:35 34.01931 -117.72072 10224 ft 274 kts 262°
2026-05-05 02:35 34.01720 -117.74365 9971 ft 268 kts 264°
2026-05-05 02:35 34.01534 -117.76631 9590 ft 267 kts 264°
2026-05-05 02:36 34.01334 -117.78900 9226 ft 265 kts 263°
2026-05-05 02:36 34.01131 -117.81094 8874 ft 263 kts 263°
2026-05-05 02:36 34.00917 -117.83334 8502 ft 262 kts 263°
2026-05-05 02:36 34.00705 -117.85519 8170 ft 260 kts 263°
2026-05-05 02:37 34.00493 -117.87681 7818 ft 259 kts 263°
2026-05-05 02:37 34.00279 -117.89879 7466 ft 257 kts 263°
2026-05-05 02:37 34.00070 -117.92005 7134 ft 256 kts 263°
2026-05-05 02:37 33.99859 -117.94160 6786 ft 255 kts 263°
2026-05-05 02:38 33.99646 -117.96332 6430 ft 255 kts 263°
2026-05-05 02:38 33.99437 -117.98462 6133 ft 252 kts 263°
2026-05-05 02:38 33.99231 -118.00527 5986 ft 244 kts 263°
2026-05-05 02:38 33.99031 -118.02541 5784 ft 239 kts 263°
2026-05-05 02:39 33.98832 -118.04530 5584 ft 233 kts 263°
2026-05-05 02:39 33.98629 -118.06487 5380 ft 228 kts 262°
2026-05-05 02:39 33.98433 -118.08402 5176 ft 223 kts 263°
2026-05-05 02:39 33.98241 -118.10314 4976 ft 219 kts 263°
2026-05-05 02:40 33.98057 -118.12154 4780 ft 218 kts 263°
2026-05-05 02:40 33.97873 -118.13990 4454 ft 220 kts 263°
2026-05-05 02:40 33.97690 -118.15825 4146 ft 221 kts 263°
2026-05-05 02:40 33.97503 -118.17690 3843 ft 221 kts 263°
2026-05-05 02:41 33.97317 -118.19514 3537 ft 220 kts 263°
2026-05-05 02:41 33.97132 -118.21354 3227 ft 219 kts 263°
2026-05-05 02:41 33.96948 -118.23181 2923 ft 219 kts 263°
2026-05-05 02:41 33.96761 -118.25014 2638 ft 216 kts 262°
2026-05-05 02:42 33.96576 -118.26846 2305 ft 213 kts 262°
2026-05-05 02:42 33.96395 -118.28627 2038 ft 208 kts 262°
2026-05-05 02:42 33.96217 -118.30376 1736 ft 200 kts 262°
2026-05-05 02:42 33.96048 -118.32028 1465 ft 183 kts 262°
2026-05-05 02:43 33.95896 -118.33523 1222 ft 168 kts 262°
2026-05-05 02:43 33.95754 -118.34917 997 ft 153 kts 261°
2026-05-05 02:43 33.95620 -118.36197 800 ft 145 kts 262°
2026-05-05 02:43 33.95497 -118.37421 600 ft 138 kts 262°
2026-05-05 02:44 33.95365 -118.38644 410 ft 138 kts 261°
2026-05-05 02:44 33.95244 -118.39857 222 ft 138 kts 263°
2026-05-05 02:44 33.95120 -118.41058 123 ft 112 kts 264°
2026-05-05 02:44 33.95055 -118.41727 123 ft 41 kts 263°
2026-05-05 02:45 33.95029 -118.41966 121 ft 16 kts 261°
2026-05-05 02:45 33.94989 -118.42101 120 ft 16 kts 242°
2026-05-05 02:45 33.94921 -118.42223 120 ft 11 kts 228°
2026-05-05 02:45 33.94899 -118.42250 120 ft 0 kts 226°
2026-05-05 02:46 33.94899 -118.42251 119 ft 0 kts 226°
2026-05-05 02:46 33.94896 -118.42254 119 ft 2 kts 226°
2026-05-05 02:46 33.94820 -118.42286 117 ft 17 kts 174°
2026-05-05 02:46 33.94701 -118.42261 117 ft 16 kts 143°
2026-05-05 02:47 33.94694 -118.42133 118 ft 14 kts 84°
2026-05-05 02:47 33.94705 -118.42018 120 ft 13 kts 83°
2026-05-05 02:47 33.94721 -118.41866 120 ft 23 kts 83°
2026-05-05 02:47 33.94740 -118.41675 120 ft 22 kts 84°
2026-05-05 02:48 33.94761 -118.41486 122 ft 21 kts 81°
2026-05-05 02:48 33.94793 -118.41311 123 ft 22 kts 83°
2026-05-05 02:48 33.94808 -118.41161 123 ft 26 kts 82°
2026-05-05 02:48 33.94830 -118.40946 123 ft 23 kts 84°
2026-05-05 02:49 33.94850 -118.40754 122 ft 23 kts 83°
2026-05-05 02:49 33.94869 -118.40562 120 ft 19 kts 83°
2026-05-05 02:49 33.94884 -118.40423 118 ft 14 kts 82°
2026-05-05 02:49 33.94891 -118.40359 117 ft 0 kts 82°
2026-05-05 02:50 33.94891 -118.40358 117 ft 0 kts 82°
2026-05-05 02:50 33.94892 -118.40356 117 ft 1 kts 82°
2026-05-05 02:50 33.94893 -118.40316 117 ft 5 kts 114°
2026-05-05 02:51 33.94859 -118.40295 117 ft 7 kts 172°
2026-05-05 02:51 33.94797 -118.40294 117 ft 8 kts 156°
2026-05-05 02:51 33.94726 -118.40262 117 ft 12 kts 171°
2026-05-05 02:51 33.94664 -118.40253 117 ft 5 kts 172°
2026-05-05 02:52 33.94643 -118.40279 117 ft 6 kts 246°
2026-05-05 02:52 33.94627 -118.40326 117 ft 2 kts 247°
2026-05-05 02:52 33.94626 -118.40329 117 ft 0 kts 246°